North Platte, NE

10:15 PM CDT on September 19, 2017 (GMT -0500)
North Platte Regional-Bird

Weather History for KLBF - February, 2011

Change the Weather History Date:

Tuesday, February 15, 2011

  Actual Average Record
Temperature  
Mean Temperature 45 °F 29 °F  
Max Temperature 67 °F 43 °F 67 °F (1946)
Min Temperature 23 °F 15 °F -23 °F (1881)
Degree Days  
Heating Degree Days 20 36  
Month to date heating degree days 637 565  
Since 1 July heating degree days 4586 4585  
Cooling Degree Days 0 0  
Month to date cooling degree days 0 0  
Year to date cooling degree days 0 0  
Moisture  
Dew Point 23 °F    
Average Humidity 52    
Maximum Humidity 88    
Minimum Humidity 15    
Precipitation  
Precipitation 0.00 in 0.02 in 0.24 in (1993)
Month to date precipitation 0.21 0.21  
Year to date precipitation 1.26 0.55  
Snow  
Snow 0.00 in 0.20 in 3.90 in (1993)
Month to date snowfall 5.1 2.8  
Since 1 July snowfall 27.9 18.4  
Snow Depth 0.00 in    
Sea Level Pressure  
Sea Level Pressure 29.92 in    
Wind  
Wind Speed 8 mph (WSW)    
Max Wind Speed 16 mph    
Max Gust Speed 23 mph    
Visibility 10 miles    
Events      
T = Trace of Precipitation, MM = Missing Value Source: NWS Daily Summary

Daily Weather History Graph

Daily Weather History Graph

Search for Another Location

Airport or City:

Trip Planner

Search our weather history database for the weather conditions in past years. The results will help you decide how hot, cold, wet, or windy it might be!

Date:

Astronomy

Feb. 15, 2011 Rise Set
Actual Time 7:37 AM CST 6:16 PM CST
Civil Twilight 7:09 AM CST 6:45 PM CST
Nautical Twilight 6:37 AM CST 7:17 PM CST
Astronomical Twilight 6:05 AM CST 7:49 PM CST
Moon 3:27 PM CST (2/15) 5:33 AM CST (2/15)
Length of Visible Light 11h 35m
Length of Day
10h 39m
Waxing Gibbous, 91% of the Moon is Illuminated
Feb 15
Waxing Gibbous
Feb 18
Full
Feb 24
Last Quarter
Mar 4
New
Mar 12
First Quarter

Hourly Weather History & Observations

Time (CST) Temp. Windchill Dew Point Humidity Pressure Visibility Wind Dir Wind Speed Gust Speed Precip Events Conditions
12:53 AM 35.1 °F 26.4 °F 24.1 °F 64% 29.93 in 10.0 mi South 12.7 mph 21.9 mph N/A   Clear
1:53 AM 35.1 °F 29.3 °F 24.1 °F 64% 29.92 in 10.0 mi South 6.9 mph - N/A   Clear
2:53 AM 33.8 °F 25.8 °F 24.8 °F 70% 29.90 in 10.0 mi SSW 10.4 mph - N/A   Clear
3:53 AM 32.0 °F 25.6 °F 24.1 °F 73% 29.90 in 10.0 mi SSW 6.9 mph - N/A   Clear
4:53 AM 30.9 °F 24.3 °F 24.1 °F 76% 29.90 in 10.0 mi SSW 6.9 mph - N/A   Clear
5:53 AM 28.4 °F 22.2 °F 23.0 °F 80% 29.89 in 10.0 mi SW 5.8 mph - N/A   Clear
6:53 AM 24.1 °F 17.0 °F 21.0 °F 88% 29.94 in 10.0 mi NW 5.8 mph - N/A   Clear
7:53 AM 24.1 °F 15.2 °F 21.0 °F 88% 29.96 in 10.0 mi WNW 8.1 mph - N/A   Clear
8:53 AM 33.1 °F 24.4 °F 27.0 °F 78% 29.98 in 10.0 mi WNW 11.5 mph - N/A   Clear
9:53 AM 44.1 °F 37.4 °F 27.0 °F 51% 29.97 in 10.0 mi WNW 13.8 mph - N/A   Clear
10:53 AM 52.0 °F - 28.0 °F 40% 29.98 in 10.0 mi West 11.5 mph - N/A   Clear
11:53 AM 61.0 °F - 25.0 °F 25% 29.95 in 10.0 mi WNW 11.5 mph - N/A   Clear
12:53 PM 64.4 °F - 19.4 °F 18% 29.93 in 10.0 mi WNW 11.5 mph - N/A   Clear
2:53 PM 66.9 °F - 17.1 °F 15% 29.89 in 10.0 mi West 8.1 mph - N/A   Clear
3:53 PM 66.0 °F - 18.0 °F 16% 29.89 in 10.0 mi WNW 8.1 mph - N/A   Clear
4:53 PM 64.9 °F - 21.0 °F 19% 29.90 in 10.0 mi WNW 5.8 mph - N/A   Clear
5:53 PM 57.0 °F - 23.0 °F 27% 29.91 in 10.0 mi Calm Calm - N/A   Clear
6:53 PM 42.1 °F 40.2 °F 23.0 °F 47% 29.96 in 10.0 mi South 3.5 mph - N/A   Clear
7:53 PM 37.9 °F - 24.1 °F 57% 29.96 in 10.0 mi Calm Calm - N/A   Clear
8:53 PM 39.0 °F 35.7 °F 23.0 °F 53% 29.93 in 10.0 mi South 4.6 mph - N/A   Clear
9:53 PM 39.0 °F 34.8 °F 24.1 °F 55% 29.90 in 10.0 mi South 5.8 mph - N/A   Clear
10:53 PM 37.0 °F 33.3 °F 24.1 °F 59% 29.89 in 10.0 mi ENE 4.6 mph - N/A   Clear
11:53 PM 43.0 °F 37.7 °F 23.0 °F 45% 29.85 in 10.0 mi SSE 9.2 mph - N/A   Clear